Preview of NWS' New Version of Forecast
This preview is not operational and should not be used for support decisions.

Regional Weather Roundup (RWR)

Issued by National Weather Service (NWS)

                            
000
ASUS44 KMEG 211210
RWRTN 
TENNESSEE HOURLY STATE WEATHER ROUNDUP
NATIONAL WEATHER SERVICE MEMPHIS TN
700 AM CDT SAT SEP 21 2019

TNZ002-004-019-021-049-052-054-088>092-211300-
WEST TENNESSEE
  
CITY           SKY/WX    TMP DP  RH WIND       PRES   REMARKS
MEMPHIS INTL   FAIR      71  59  65 S7        30.19S                  
NWS MEMPHIS      N/A     68 N/A N/A MISG        N/A                   
JACKSON        FAIR      63  60  90 CALM      30.23R                  
DYERSBURG      FAIR      67  64  90 SE6       30.22R                  
SOMERVILLE     CLEAR     66  61  82 SE5       30.20S                  
COVINGTON      CLEAR     63  61  94 E3        30.20                   
UNION CITY     CLEAR     63  61  94 CALM      30.20R                  
BOLIVAR        CLEAR     63  61  94 CALM      30.22R                  
PARIS          CLEAR     66  61  82 SE6       30.23R                  
HUNTINGDON     CLEAR     66  61  82 SE3       30.23R                  
LEXINGTON      CLEAR     59  59 100 CALM      30.23R FOG              
SELMER         CLEAR     64  57  77 S5        30.23R                  
SAVANNAH       CLEAR     64  59  82 S3        30.23R                  
$$

TNZ008-025-027-028-033-062-065-066-211300-
NORTH MIDDLE TENNESSEE
  
CITY           SKY/WX    TMP DP  RH WIND       PRES   REMARKS
NASHVILLE      FAIR      66  57  72 S5        30.27S                  
DICKSON        SUNNY     68  55  64 S6G12     30.25R                  
PORTLAND       CLEAR     66  59  77 S6        30.27R                  
CLARKSVILLE    FAIR      64  60  87 SE3       30.25R                  
LEBANON        SUNNY     63  57  82 CALM      30.26S                  
SMYRNA         FAIR      61  58  90 SE3       30.29R                  
MURFREESBORO   SUNNY     63  57  82 CALM      30.27R                  
LIVINGSTON     SUNNY    N/A N/A N/A MISG        N/A                   
CROSSVILLE     FAIR      61  54  77 CALM      30.35S                  
ROCKWOOD       SUNNY     63  57  82 SW5       30.34R                  
$$

TNZ061-075-076-078-094-096-097-211300-
SOUTH MIDDLE TENNESSEE
  
CITY           SKY/WX    TMP DP  RH WIND       PRES   REMARKS
LAWRENCEBURG   SUNNY     59  55  88 CALM      30.28R                  
LEWISBURG      SUNNY     55  54  94 CALM      30.28R                  
FAYETTEVILLE   CLEAR     61  55  82 CALM      30.29R                  
TULLAHOMA      CLEAR     57  54  88 CALM      30.30R                  
WINCHESTER     CLEAR     63  54  72 E7        30.30R                  
MCMINNVILLE    CLEAR     59  55  88 CALM      30.31R                  
COLUMBIA       CLEAR     61  61 100 CALM      30.25S                  
SHELBYVILLE    CLEAR     61  57  88 CALM      30.29R                  
$$

TNZ017-018-042-046-047-211300-
NORTHEAST TENNESSEE
  
CITY           SKY/WX    TMP DP  RH WIND       PRES   REMARKS
TRI CITIES     MOCLDY    60  58  92 CALM      30.36R                  
ELIZABETHTON   MOCLDY    61  59  94 CALM      30.36R                  
GREENEVILLE    SUNNY     63  59  88 CALM      30.35R                  
$$

TNZ012-013-036-069-073-074-211300-
CENTRAL EAST TENNESSEE
  
CITY           SKY/WX    TMP DP  RH WIND       PRES   REMARKS
KNOXVILLE      FAIR      64  60  87 CALM      30.32R                  
OAK RIDGE      FAIR      65  60  84 CALM      30.34R                  
DOWNTOWN KNOXV FOG       63  63 100 CALM      30.33R VSB 1/2          
GATLINBURG     CLEAR     63  63 100 CALM      30.33R                  
MORRISTOWN     CLEAR     63  61  94 CALM      30.33R                  
JACKSBORO      FOG       59  59 100 CALM      30.36R VSB 0            
$$

TNZ083-085-099-211300-
SOUTHEAST TENNESSEE
  
CITY           SKY/WX    TMP DP  RH WIND       PRES   REMARKS
CHATTANOOGA    FAIR      60  58  92 CALM      30.33R                  
$$

SKY/WX REPORTED AS FAIR MEANS FEW OR NO CLOUDS BELOW
12 THOUSAND FEET.